Location: Aetna Mine
(37.6183°N, 107.6045°W)
Time: 11:03:28
(UTC+00:00)

COSMO-SKYMED 1 - Pass Details

Date: 18 September 2020
Orbit: 621 x 623 km, 97.9° (Epoch: 21 October)

Event Time Altitude Azimuth Distance (km) Brightness Sun altitude
Rises 12:14:39 0° 160° (SSE) 2,888 6.1 -8.8°
Reaches altitude 10° 12:16:50 10° 158° (SSE) 1,986 5.3 -8.4°
Maximum altitude 12:21:08 68° 76° (ENE) 674 3.0 -7.6°
Drops below altitude 10° 12:25:27 10° 353° (N) 2,000 5.2 -6.7°
Sets 12:27:39 0° 351° (N) 2,911 6.0 -6.3°
